{"data":{"norad_id":68713,"epoch":"2026-05-25T04:00:03.998880Z","epoch_age_seconds":63666,"freshness":"FRESH","line1":"1 68713U 26081Q   26145.16671295 -.01934871  00000+0 -51957-1 0  9999","line2":"2 68713  53.1596  38.9467 0001470  91.9600 158.2460 15.40831579  5958","mean_motion":15.40831579,"eccentricity":0.000147,"inclination_deg":53.1596,"raan_deg":38.9467,"arg_perigee_deg":91.96,"mean_anomaly_deg":158.246,"bstar":-0.051957,"rev_number":595,"period_min":93.45602852549,"perigee_km":442.65095304442,"apogee_km":444.65655952677,"semimajor_km":6821.7907562856,"source":"CELESTRAK","updated_at":"2026-05-25T13:38:22.000689Z"}}